Le nostre stazioni meteo in Italia

Pubblicità
Il mio iltempo24.it
Pantelleria, Italia (16470): Temperatura & dewpoint: 31.05.2020 10:00:00 - 06.06.2020 10:00:00 (CEST)Pantelleria, Italia (16470): velocità del vento: 31.05.2020 10:00:00 - 06.06.2020 10:00:00 (CEST)Pantelleria, Italia (16470): direzione del vento: 31.05.2020 10:00:00 - 06.06.2020 10:00:00 (CEST)Pantelleria, Italia (16470): visibility: 31.05.2020 10:00:00 - 06.06.2020 10:00:00 (CEST)
Data & Tempo tt [°C] td [°C] ff [km/h] ff [kn] dd vv [km]
06.06.2020 10:00:00 20,0 17,0 34 18 OSO 10
06.06.2020 09:00:00 20,0 17,0 24 13 O 10
06.06.2020 08:00:00 19,0 17,0 26 14 O 10
06.06.2020 07:00:00 19,0 17,0 22 12 O 10
06.06.2020 06:00:00 - - - - - -
06.06.2020 05:00:00 - - - - - -
06.06.2020 04:00:00 - - - - - -
06.06.2020 03:00:00 - - - - - -
06.06.2020 02:00:00 - - - - - -
06.06.2020 01:00:00 - - - - - -
06.06.2020 00:00:00 - - - - - -
05.06.2020 23:00:00 - - - - - -
05.06.2020 22:00:00 - - - - - -
05.06.2020 21:00:00 - - - - - -
05.06.2020 20:00:00 20,0 16,0 34 18 O 10
05.06.2020 19:00:00 20,0 16,0 34 18 O 10
05.06.2020 18:00:00 20,0 16,0 42 23 O 10
05.06.2020 17:00:00 21,0 16,0 41 22 O 10
05.06.2020 16:00:00 21,0 16,0 35 19 O 10
05.06.2020 15:00:00 21,0 16,0 31 17 O 10
05.06.2020 14:00:00 21,0 15,0 34 18 O 10
05.06.2020 13:00:00 20,0 17,0 26 14 O 10
05.06.2020 12:00:00 18,0 17,0 16 9 NO 6
05.06.2020 11:00:00 18,0 17,0 11 6 NNO 10
05.06.2020 10:00:00 17,0 16,0 18 10 ONO 6
05.06.2020 09:00:00 19,0 19,0 11 6 NNO 0,7
05.06.2020 08:00:00 19,0 19,0 9 5 NNO 0,2
05.06.2020 07:00:00 19,0 18,0 2 1 ONO 8
05.06.2020 06:00:00 - - - - - -
05.06.2020 05:00:00 - - - - - -
05.06.2020 04:00:00 - - - - - -
05.06.2020 03:00:00 - - - - - -
05.06.2020 02:00:00 - - - - - -
05.06.2020 01:00:00 - - - - - -
05.06.2020 00:00:00 - - - - - -
04.06.2020 23:00:00 - - - - - -
04.06.2020 22:00:00 - - - - - -
04.06.2020 21:00:00 - - - - - -
04.06.2020 20:00:00 25,0 10,0 48 26 SE 10
04.06.2020 19:00:00 25,0 12,0 46 25 SE 10
04.06.2020 18:00:00 26,0 12,0 41 22 SE 10
04.06.2020 17:00:00 27,0 12,0 39 21 SE 10
04.06.2020 16:00:00 26,0 14,0 37 20 SE 10
04.06.2020 15:00:00 27,0 13,0 42 23 SE 10
04.06.2020 14:00:00 27,0 10,0 42 23 SE 10
04.06.2020 13:00:00 26,0 13,0 41 22 SE 10
04.06.2020 12:00:00 25,0 13,0 42 23 SSE 10
04.06.2020 11:00:00 24,0 12,0 31 17 SE 10
04.06.2020 10:00:00 23,0 15,0 31 17 SE 10
04.06.2020 09:00:00 22,0 15,0 16 9 SE 10
04.06.2020 08:00:00 22,0 11,0 16 9 E 10
04.06.2020 07:00:00 20,0 13,0 22 12 ESE 10
04.06.2020 06:00:00 - - - - - -
04.06.2020 05:00:00 - - - - - -
04.06.2020 04:00:00 - - - - - -
04.06.2020 03:00:00 - - - - - -
04.06.2020 02:00:00 - - - - - -
04.06.2020 01:00:00 - - - - - -
04.06.2020 00:00:00 - - - - - -
03.06.2020 23:00:00 - - - - - -
03.06.2020 22:00:00 - - - - - -
03.06.2020 21:00:00 - - - - - -
03.06.2020 20:00:00 20,0 16,0 13 7 S 10
03.06.2020 19:00:00 21,0 16,0 5 3 N 10
03.06.2020 18:00:00 21,0 15,0 5 3 - 10
03.06.2020 17:00:00 22,0 15,0 9 5 N 10
03.06.2020 16:00:00 21,0 15,0 8 4 - 10
03.06.2020 15:00:00 22,0 15,0 9 5 N 10
03.06.2020 14:00:00 22,0 14,0 8 4 N 10
03.06.2020 13:00:00 21,0 15,0 13 7 N 10
03.06.2020 12:00:00 21,0 13,0 13 7 N 10
03.06.2020 11:00:00 21,0 16,0 8 4 N 10
03.06.2020 10:00:00 20,0 16,0 13 7 NNO 10
03.06.2020 09:00:00 20,0 16,0 11 6 NO 10
03.06.2020 08:00:00 19,0 16,0 9 5 ONO 10
03.06.2020 07:00:00 18,0 16,0 8 4 O 10
03.06.2020 06:00:00 - - - - - -
03.06.2020 05:00:00 - - - - - -
03.06.2020 04:00:00 - - - - - -
03.06.2020 03:00:00 - - - - - -
03.06.2020 02:00:00 - - - - - -
03.06.2020 01:00:00 - - - - - -
03.06.2020 00:00:00 - - - - - -
02.06.2020 23:00:00 - - - - - -
02.06.2020 22:00:00 - - - - - -
02.06.2020 21:00:00 - - - - - -
02.06.2020 20:00:00 19,0 15,0 9 5 NO 10
02.06.2020 19:00:00 20,0 15,0 13 7 NNO 10
02.06.2020 18:00:00 20,0 15,0 13 7 ONO 10
02.06.2020 17:00:00 21,0 15,0 16 9 NO 10
02.06.2020 16:00:00 21,0 14,0 16 9 NNO 10
02.06.2020 15:00:00 21,0 15,0 15 8 NNO 10
02.06.2020 14:00:00 21,0 15,0 13 7 N 10
02.06.2020 13:00:00 20,0 15,0 13 7 N 10
02.06.2020 12:00:00 20,0 14,0 13 7 NNO 10
02.06.2020 11:00:00 20,0 15,0 13 7 N 10
02.06.2020 10:00:00 20,0 15,0 13 7 N 10
02.06.2020 09:00:00 19,0 16,0 13 7 NNE 10
02.06.2020 08:00:00 18,0 15,0 15 8 N 10
02.06.2020 07:00:00 18,0 16,0 15 8 N 10
02.06.2020 06:00:00 - - - - - -
02.06.2020 05:00:00 - - - - - -
02.06.2020 04:00:00 - - - - - -
02.06.2020 03:00:00 - - - - - -
02.06.2020 02:00:00 - - - - - -
02.06.2020 01:00:00 - - - - - -
02.06.2020 00:00:00 - - - - - -
01.06.2020 23:00:00 - - - - - -
01.06.2020 22:00:00 - - - - - -
01.06.2020 21:00:00 - - - - - -
01.06.2020 20:00:00 19,0 15,0 9 5 NO 10
01.06.2020 19:00:00 20,0 15,0 15 8 NNO 10
01.06.2020 18:00:00 20,0 14,0 13 7 N 10
01.06.2020 17:00:00 20,0 14,0 15 8 N 10
01.06.2020 16:00:00 20,0 15,0 15 8 N 10
01.06.2020 15:00:00 21,0 14,0 16 9 N 10
01.06.2020 14:00:00 21,0 13,0 15 8 NNO 10
01.06.2020 13:00:00 20,0 12,0 13 7 N 10
01.06.2020 12:00:00 21,0 12,0 9 5 NO 10
01.06.2020 11:00:00 19,0 13,0 13 7 N 10
01.06.2020 10:00:00 19,0 14,0 15 8 N 10
01.06.2020 09:00:00 19,0 13,0 15 8 N 10
01.06.2020 08:00:00 18,0 13,0 11 6 N 10
01.06.2020 07:00:00 17,0 13,0 9 5 N 10
01.06.2020 06:00:00 - - - - - -
01.06.2020 05:00:00 - - - - - -
01.06.2020 04:00:00 - - - - - -
01.06.2020 03:00:00 - - - - - -
01.06.2020 02:00:00 - - - - - -
01.06.2020 01:00:00 - - - - - -
01.06.2020 00:00:00 - - - - - -
31.05.2020 23:00:00 - - - - - -
31.05.2020 22:00:00 - - - - - -
31.05.2020 21:00:00 - - - - - -
31.05.2020 20:00:00 19,0 14,0 11 6 N 10
31.05.2020 19:00:00 19,0 14,0 16 9 N 10
31.05.2020 18:00:00 20,0 14,0 15 8 NNO 10
31.05.2020 17:00:00 20,0 14,0 18 10 ONO 10
31.05.2020 16:00:00 20,0 14,0 13 7 NNO 10
31.05.2020 15:00:00 20,0 15,0 15 8 NNO 10
31.05.2020 14:00:00 20,0 16,0 18 10 N 10
31.05.2020 13:00:00 20,0 16,0 15 8 ONO 10
31.05.2020 12:00:00 - - - - - -
31.05.2020 11:00:00 20,0 15,0 13 7 ONO 10
31.05.2020 10:00:00 20,0 15,0 11 6 N 10

tt = Temperatura
td = dewpoint
ff = velocità del vento
dd = direzione del vento
vv = visibility

Stazioni seguenti

WeatherPro
AMSI
MeteoEarth